SCP
0 0 0 0 0 0 0 0 0 0 0 0 0 0 0 0 0 0 0 -0 -0 -0 -0 -0 -0 -0 0 -0 -0 -0 -0 -0 -0 -0 -0 -0 -0 -0 -0 -0 -0 -0 -0
0 0 0 0 0 0 0 0 0 0 0 0 0 0 0 0 0 -0 0 0 0 0 0 -0 0 0 0 0 0 -0 -0 -0 -0 0 -0 -0 -0 -0 -0 0 -0 -0 -0
0 0 0 0 0 0 0 0 0 0 0 0 0 0 0 0 0 0 0 0 0 0 0 0 0 0 0 0 0 0 0 0 0 0 0 0 0 0 0 0 0 0 0
0 0 0 0 0 0 0 0 0 0 0 0 0 0 0 0 0 0 0 0 0 0 0 0 0 0 0 0 0 0 0 0 0 0 0 0 0 0 0 0 0 0 0
0 0 0 0 0 0 0 0 0 0 0 0 0 0 0 0 0 0 0 0 0 0 0 0 0 0 0 0 0 0 0 0 0 0 0 0 0 0 0 0 0 0 0
0 0 0 0 0 0 0 0 0 0 0 0 0 0 0 0 0 0 0 0 0 0 0 0 0 0 0 0 0 0 0 0 0 0 0 0 0 0 0 0 0 0 0
0 0 0 0 0 0 0 0 0 0 0 0 0 0 0 0 0 0 0 0 0 0 0 0 0 0 0 0 0 0 0 0 0 0 0 0 0 0 0 0 0 0 0
0 0 0 0 0 0 0 0 0 0 0 0 0 0 0 0 0 0 0 0 0 0 0 0 0 0 0 0 0 0 0 0 0 0 0 0 0 0 0 0 0 0 0
0 0 0 0 0 0 0 0 0 0 0 0 0 0 0 0 0 0 0 0 0 0 0 0 0 0 0 0 0 0 0 0 0 0 0 0 0 0 0 0 0 0 0
0 0 0 0 0 0 0 0 0 0 0 0 0 0 0 0 0 0 0 0 0 0 0 0 0 0 0 0 0 0 0 0 0 0 0 0 0 0 0 0 0 0 0
0 0 0 0 0 0 0 0 0 0 0 0 0 0 0 0 0 0 0 0 0 0 0 0 0 0 0 0 0 0 0 0 0 0 0 0 0 0 0 0 0 0 0
0 0 0 0 0 0 0 0 0 0 0 0 0 0 0 0 0 0 0 0 0 0 0 0 0 0 0 0 0 0 0 0 0 0 0 0 0 0 0 0 0 0 0
0 0 0 0 0 0 0 0 0 0 0 0 0 0 0 0 0 0 0 0 0 0 0 0 0 0 0 0 0 0 0 0 0 0 0 0 0 0 0 0 0 0 0
0 0 0 0 0 0 0 0 0 0 0 0 0 0 0 0 0 0 0 0 0 0 0 0 0 0 0 0 0 0 0 0 0 0 0 0 0 0 0 0 0 0 0
0 0 0 0 0 0 0 0 0 0 0 0 0 0 0 0 0 0 0 0 0 0 0 0 0 0 0 0 0 0 0 0 0 0 0 0 0 0 0 0 0 0 0
0 0 0 0 0 0 0 0 0 0 0 0 0 0 0 0 0 0 0 0 0 0 0 0 0 0 0 0 0 0 0 0 0 0 0 0 0 0 0 0 0 0 0
0 0 0 0 0 0 0 0 0 0 0 0 0 0 0 0 0 0 0 0 0 0 0 0 0 0 0 0 0 0 0 0 0 0 0 0 0 0 0 0 0 0 0
0 0 0 0 0 0 0 0 0 0 0 0 0 0 0 0 0 0 0 0 0 0 0 0 0 0 0 0 0 0 0 0 0 0 0 0 0 0 0 0 0 0 0
0 0 0 0 0 0 0 0 0 0 0 0 0 0 0 0 0 0 0 0 0 0 0 0 0 0 0 0 0 0 0 0 0 0 0 0 0 0 0 0 0 0 0
0 0 0 0 0 0 0 0 0 0 0 0 0 0 0 0 0 0 0 0 0 0 0 0 0 0 0 0 0 0 0 0 0 0 0 0 0 0 0 0 0 0 0
0 0 0 0 0 0 0 0 0 0 0 0 0 0 0 0 0 0 0 0 0 0 0 0 0 0 0 0 0 0 0 0 0 0 0 0 0 0 0 0 0 0 0
0 0 0 0 0 0 0 0 0 0 0 0 0 0 0 0 0 0 0 0 0 0 0 0 0 0 0 0 0 0 0 0 0 0 0 0 0 0 0 0 0 0 0
0 0 0 0 0 0 0 0 0 0 0 0 0 0 0 0 0 0 0 0 0 0 0 0 0 0 0 0 0 0 0 0 0 0 0 0 0 0 0 0 0 0 0
0 0 0 0 0 0 0 0 0 0 0 0 0 0 0 0 0 0 0 0 0 0 0 0 0 0 0 0 0 0 0 0 0 0 0 0 0 0 0 0 0 0 0
0 0 0 0 0 0 0 0 0 0 0 0 0 0 0 0 0 0 0 0 0 0 0 0 0 0 0 0 0 0 0 0 0 0 0 0 0 0 0 0 0 0 0
0 0 0 0 0 0 0 0 0 0 0 0 0 0 0 0 0 0 0 0 0 0 0 0 0 0 0 0 0 0 0 0 0 0 0 0 0 0 0 0 0 0 0
Wind_Speed_500mb
36 39 35 30 27 30 26 25 25 24 23 24 25 25 23 22 13 24 28 26 28 24 23 23 28 20 23 16 13 17 19 22 25 24 30 33 33 29 28 28 29 23 24
40 35 37 35 27 29 26 25 25 23 23 23 25 24 24 25 19 22 21 22 18 14 25 23 21 19 20 14 17 13 12 13 18 20 23 29 33 28 28 32 27 29 26
42 43 34 37 36 30 29 28 25 23 21 22 24 24 23 22 18 21 15 15 15 17 14 17 24 24 24 22 19 12 14 11 9 7 12 22 27 28 25 26 24 24 24
39 45 39 39 41 37 33 29 26 24 23 22 23 23 22 21 19 19 16 12 11 15 6 18 20 12 13 17 15 16 10 10 5 2 4 9 19 23 19 20 22 24 27
39 41 39 39 43 41 34 30 27 24 24 22 22 22 20 20 20 16 16 12 15 12 9 15 13 13 17 20 22 16 17 8 4 3 3 2 9 16 15 19 19 25 23
42 40 39 37 40 43 35 34 29 24 22 23 20 18 19 17 14 13 12 12 15 19 13 11 18 16 19 19 19 17 20 19 14 11 11 14 14 13 15 16 16 20 19
40 41 42 39 38 38 39 33 31 30 23 22 20 15 12 11 13 12 10 5 10 13 13 15 15 10 18 17 19 19 20 22 19 10 5 18 15 19 16 16 12 12 12
39 39 41 41 39 40 40 36 32 35 27 25 16 13 8 6 4 8 9 8 5 8 12 15 15 16 15 13 18 16 16 18 19 17 16 5 8 10 9 8 9 9 8
48 40 38 39 41 38 43 39 36 35 31 30 19 11 7 8 11 5 5 8 8 11 12 16 17 16 15 16 18 18 16 15 15 12 14 16 3 3 2 3 4 9 7
51 46 38 37 34 37 37 34 30 26 20 25 24 23 20 13 4 4 5 6 2 8 12 16 21 23 19 18 18 18 17 14 12 10 9 10 19 10 6 2 1 6 4
55 52 46 43 40 38 35 31 32 31 27 21 22 23 21 11 10 7 4 7 9 11 16 16 18 18 21 20 21 19 17 17 17 12 8 5 9 13 6 8 7 10 10
62 58 54 48 44 40 36 35 33 34 35 29 27 23 20 11 7 8 7 11 15 13 16 19 20 23 19 19 19 20 18 19 18 16 13 12 10 11 10 10 15 15 18
64 64 58 53 49 45 41 42 42 42 39 31 33 31 26 24 17 15 14 14 14 14 22 21 19 18 21 21 20 19 19 20 20 18 16 15 16 17 17 14 18 20 17
55 49 49 48 46 43 49 47 47 43 43 39 38 38 36 35 25 25 22 20 20 17 18 22 17 22 19 20 23 23 21 19 20 17 16 17 20 19 22 23 21 25 21
48 46 44 43 44 44 45 40 39 44 45 41 43 44 39 45 41 33 31 28 25 27 24 20 24 23 26 22 24 26 25 21 18 15 15 17 20 24 23 28 30 27 29
48 45 46 46 43 43 45 45 46 44 41 42 46 45 45 40 50 42 41 39 38 37 38 28 27 32 32 32 33 30 30 27 23 21 19 18 20 24 25 24 29 33 34
49 51 51 50 49 47 47 50 53 54 50 45 46 48 46 42 50 50 48 45 44 43 42 41 33 38 38 41 32 32 31 30 33 30 28 27 26 25 26 25 24 30 34
53 53 53 51 49 50 52 55 57 58 56 52 49 50 51 48 48 53 50 50 45 46 47 46 38 35 34 40 33 34 38 35 34 38 37 36 35 34 31 29 27 25 29
53 54 55 57 54 50 47 47 56 55 52 57 54 53 53 53 52 54 52 55 53 51 49 48 46 44 35 38 44 44 39 38 37 36 39 42 44 42 40 36 33 31 29
51 51 52 52 53 50 46 43 42 51 54 50 51 49 49 52 52 52 55 57 53 52 48 47 47 46 46 46 50 50 46 44 44 44 44 43 43 43 45 44 41 38 36
42 43 46 47 50 47 48 47 49 54 48 46 46 48 50 53 53 54 55 56 56 54 51 51 50 54 53 54 53 53 53 49 50 49 54 51 45 50 51 49 47 45 42
35 37 36 37 42 43 46 48 47 53 51 47 46 45 47 47 45 42 41 42 46 50 50 49 53 59 56 58 56 57 53 54 53 50 53 55 50 46 46 48 51 50 47
28 27 32 36 35 43 46 50 54 53 51 50 49 48 50 54 47 48 45 42 43 49 59 60 59 56 56 54 53 56 53 52 55 48 49 59 57 58 47 49 47 52 50
29 31 32 30 32 36 47 52 54 53 52 51 50 46 48 50 43 47 48 47 43 42 46 51 54 54 59 58 55 54 54 54 62 59 55 64 60 52 46 44 43 41 44
28 32 34 33 32 34 39 40 43 47 47 47 48 48 40 43 43 50 48 50 52 54 53 53 61 64 62 63 60 61 64 60 67 66 59 53 59 60 57 55 51 48 49
27 28 28 28 29 28 38 43 44 46 47 47 47 45 47 46 47 48 54 59 58 56 55 58 62 66 63 63 63 64 61 64 68 70 60 54 55 54 61 58 53 53 52
Wind_Direction_500mb
154 157 160 157 153 143 138 136 127 117 105 97 98 101 107 108 105 95 96 94 90 86 87 71 66 81 90 102 128 114 101 70 54 39 32 37 42 53 55 54 57 65 69
160 159 159 158 160 145 144 135 131 128 109 101 97 104 100 100 77 87 95 99 89 72 74 65 88 63 74 101 92 101 109 101 78 57 29 25 28 34 51 57 52 56 52
164 161 159 157 157 152 142 141 137 128 120 106 99 98 95 104 114 113 98 94 80 84 75 58 51 67 61 61 62 109 118 114 114 84 29 10 12 17 42 55 47 57 55
164 158 165 157 159 157 154 143 140 136 130 118 106 100 98 106 105 100 94 92 90 36 58 49 82 81 45 38 47 54 128 122 119 32 9 16 22 5 45 51 52 53 53
168 162 157 165 162 164 158 153 149 144 138 132 115 113 102 92 95 98 95 88 84 111 31 50 59 38 36 46 43 48 25 46 78 54 43 2 1 349 45 47 52 66 62
169 170 163 170 163 165 162 162 155 147 145 143 131 115 119 121 108 92 91 84 66 63 63 55 33 24 31 32 33 25 15 25 37 50 61 45 22 354 69 62 61 61 64
174 173 173 171 170 165 169 162 162 161 160 154 138 122 109 106 106 115 114 98 44 59 54 54 46 31 3 29 29 24 18 18 19 50 61 62 60 44 71 57 61 63 55
181 179 178 176 173 169 170 167 171 161 169 162 143 124 129 72 110 88 96 93 85 36 36 34 28 34 26 357 4 9 15 15 14 14 21 60 80 72 70 44 20 43 38
191 187 185 184 175 175 173 171 177 173 175 173 170 165 141 119 129 60 98 53 40 30 30 16 9 4 4 353 357 7 1 2 5 6 1 11 14 129 72 70 360 357 353
191 194 191 189 188 184 182 186 183 188 201 202 197 173 154 140 118 152 318 338 1 344 2 11 5 0 359 352 340 337 349 348 343 344 353 353 345 24 16 329 186 329 21
192 197 199 197 189 197 196 190 200 208 213 213 215 214 218 209 208 197 277 307 308 311 320 334 343 347 343 344 344 329 321 330 338 321 309 305 318 339 335 300 327 322 304
200 203 205 204 202 194 197 204 209 214 214 225 218 228 221 224 259 230 245 259 265 282 298 306 313 322 326 331 340 331 322 316 314 319 304 284 267 265 299 286 292 314 322
207 208 209 209 208 208 208 214 217 220 222 232 229 234 236 239 225 226 229 253 259 280 294 306 301 306 314 312 320 322 320 322 310 301 301 293 279 262 261 273 285 297 303
208 209 213 216 216 219 220 221 226 229 232 237 242 243 249 245 236 247 255 257 262 278 283 305 278 299 289 304 306 310 309 315 312 301 292 292 290 288 264 256 261 276 287
202 198 202 205 212 218 223 226 225 226 234 242 247 250 250 249 247 251 258 262 262 266 274 300 285 285 291 294 304 301 294 299 298 302 305 298 296 294 283 268 255 258 270
199 202 203 209 214 220 224 231 234 235 238 244 246 247 252 258 236 246 256 261 261 263 268 270 279 284 284 293 296 295 287 283 283 285 288 296 301 302 298 285 264 261 262
202 206 211 217 222 224 230 235 237 240 241 236 246 248 252 248 243 247 254 257 259 261 267 276 273 263 271 292 295 295 283 282 274 271 280 287 290 295 301 298 279 267 267
217 221 224 226 228 232 237 238 237 238 239 235 235 249 250 248 244 247 254 258 259 265 270 272 271 268 280 292 296 276 286 283 280 275 274 280 284 284 287 293 286 279 275
221 226 230 232 234 232 232 233 235 233 236 237 242 242 249 247 247 247 249 258 264 266 265 267 270 275 274 278 297 292 285 286 286 284 282 280 280 277 276 278 282 279 278
222 225 228 225 226 226 227 228 240 239 238 240 242 242 240 241 243 249 254 257 264 263 260 263 270 276 276 286 287 294 292 293 294 293 287 287 281 276 271 269 271 273 278
219 222 225 226 228 226 226 228 229 241 241 241 246 247 245 243 244 247 253 260 259 253 256 262 270 275 277 280 281 284 284 288 291 291 295 293 291 279 271 267 267 268 272
217 221 224 228 231 234 229 229 225 240 240 242 244 246 249 247 245 243 246 256 261 259 254 261 268 271 272 275 282 282 284 285 289 293 298 300 296 289 273 268 269 264 262
213 222 227 226 223 219 222 225 230 235 240 242 242 240 246 250 246 247 247 248 258 266 262 264 265 267 270 272 278 280 285 286 285 292 287 287 289 288 284 270 268 260 256
209 216 225 231 237 238 238 237 235 236 240 242 244 244 243 246 247 247 249 248 250 258 270 265 261 261 269 274 277 281 285 278 282 288 286 284 286 291 288 277 274 260 254
218 222 225 230 237 238 241 242 243 240 242 243 243 242 246 246 247 249 245 251 259 261 260 265 265 265 265 266 270 276 276 277 280 283 290 279 279 285 288 285 270 259 260
227 226 229 232 232 242 244 242 242 239 242 244 245 244 244 242 244 241 249 257 258 260 268 272 270 271 271 271 268 269 272 272 274 277 282 278 279 283 284 283 269 262 261
Wind_Speed_850mb
36 39 35 30 27 30 26 25 25 24 23 24 25 25 23 22 13 24 28 26 28 24 23 23 28 20 23 16 13 17 19 22 25 24 30 33 33 29 28 28 29 23 24
40 35 37 35 27 29 26 25 25 23 23 23 25 24 24 25 19 22 21 22 18 14 25 23 21 19 20 14 17 13 12 13 18 20 23 29 33 28 28 32 27 29 26
42 43 34 37 36 30 29 28 25 23 21 22 24 24 23 22 18 21 15 15 15 17 14 17 24 24 24 22 19 12 14 11 9 7 12 22 27 28 25 26 24 24 24
39 45 39 39 41 37 33 29 26 24 23 22 23 23 22 21 19 19 16 12 11 15 6 18 20 12 13 17 15 16 10 10 5 2 4 9 19 23 19 20 22 24 27
39 41 39 39 43 41 34 30 27 24 24 22 22 22 20 20 20 16 16 12 15 12 9 15 13 13 17 20 22 16 17 8 4 3 3 2 9 16 15 19 19 25 23
42 40 39 37 40 43 35 34 29 24 22 23 20 18 19 17 14 13 12 12 15 19 13 11 18 16 19 19 19 17 20 19 14 11 11 14 14 13 15 16 16 20 19
40 41 42 39 38 38 39 33 31 30 23 22 20 15 12 11 13 12 10 5 10 13 13 15 15 10 18 17 19 19 20 22 19 10 5 18 15 19 16 16 12 12 12
39 39 41 41 39 40 40 36 32 35 27 25 16 13 8 6 4 8 9 8 5 8 12 15 15 16 15 13 18 16 16 18 19 17 16 5 8 10 9 8 9 9 8
48 40 38 39 41 38 43 39 36 35 31 30 19 11 7 8 11 5 5 8 8 11 12 16 17 16 15 16 18 18 16 15 15 12 14 16 3 3 2 3 4 9 7
51 46 38 37 34 37 37 34 30 26 20 25 24 23 20 13 4 4 5 6 2 8 12 16 21 23 19 18 18 18 17 14 12 10 9 10 19 10 6 2 1 6 4
55 52 46 43 40 38 35 31 32 31 27 21 22 23 21 11 10 7 4 7 9 11 16 16 18 18 21 20 21 19 17 17 17 12 8 5 9 13 6 8 7 10 10
62 58 54 48 44 40 36 35 33 34 35 29 27 23 20 11 7 8 7 11 15 13 16 19 20 23 19 19 19 20 18 19 18 16 13 12 10 11 10 10 15 15 18
64 64 58 53 49 45 41 42 42 42 39 31 33 31 26 24 17 15 14 14 14 14 22 21 19 18 21 21 20 19 19 20 20 18 16 15 16 17 17 14 18 20 17
55 49 49 48 46 43 49 47 47 43 43 39 38 38 36 35 25 25 22 20 20 17 18 22 17 22 19 20 23 23 21 19 20 17 16 17 20 19 22 23 21 25 21
48 46 44 43 44 44 45 40 39 44 45 41 43 44 39 45 41 33 31 28 25 27 24 20 24 23 26 22 24 26 25 21 18 15 15 17 20 24 23 28 30 27 29
48 45 46 46 43 43 45 45 46 44 41 42 46 45 45 40 50 42 41 39 38 37 38 28 27 32 32 32 33 30 30 27 23 21 19 18 20 24 25 24 29 33 34
49 51 51 50 49 47 47 50 53 54 50 45 46 48 46 42 50 50 48 45 44 43 42 41 33 38 38 41 32 32 31 30 33 30 28 27 26 25 26 25 24 30 34
53 53 53 51 49 50 52 55 57 58 56 52 49 50 51 48 48 53 50 50 45 46 47 46 38 35 34 40 33 34 38 35 34 38 37 36 35 34 31 29 27 25 29
53 54 55 57 54 50 47 47 56 55 52 57 54 53 53 53 52 54 52 55 53 51 49 48 46 44 35 38 44 44 39 38 37 36 39 42 44 42 40 36 33 31 29
51 51 52 52 53 50 46 43 42 51 54 50 51 49 49 52 52 52 55 57 53 52 48 47 47 46 46 46 50 50 46 44 44 44 44 43 43 43 45 44 41 38 36
42 43 46 47 50 47 48 47 49 54 48 46 46 48 50 53 53 54 55 56 56 54 51 51 50 54 53 54 53 53 53 49 50 49 54 51 45 50 51 49 47 45 42
35 37 36 37 42 43 46 48 47 53 51 47 46 45 47 47 45 42 41 42 46 50 50 49 53 59 56 58 56 57 53 54 53 50 53 55 50 46 46 48 51 50 47
28 27 32 36 35 43 46 50 54 53 51 50 49 48 50 54 47 48 45 42 43 49 59 60 59 56 56 54 53 56 53 52 55 48 49 59 57 58 47 49 47 52 50
29 31 32 30 32 36 47 52 54 53 52 51 50 46 48 50 43 47 48 47 43 42 46 51 54 54 59 58 55 54 54 54 62 59 55 64 60 52 46 44 43 41 44
28 32 34 33 32 34 39 40 43 47 47 47 48 48 40 43 43 50 48 50 52 54 53 53 61 64 62 63 60 61 64 60 67 66 59 53 59 60 57 55 51 48 49
27 28 28 28 29 28 38 43 44 46 47 47 47 45 47 46 47 48 54 59 58 56 55 58 62 66 63 63 63 64 61 64 68 70 60 54 55 54 61 58 53 53 52
Wind_Direction_850mb
154 157 160 157 153 143 138 136 127 117 105 97 98 101 107 108 105 95 96 94 90 86 87 71 66 81 90 102 128 114 101 70 54 39 32 37 42 53 55 54 57 65 69
160 159 159 158 160 145 144 135 131 128 109 101 97 104 100 100 77 87 95 99 89 72 74 65 88 63 74 101 92 101 109 101 78 57 29 25 28 34 51 57 52 56 52
164 161 159 157 157 152 142 141 137 128 120 106 99 98 95 104 114 113 98 94 80 84 75 58 51 67 61 61 62 109 118 114 114 84 29 10 12 17 42 55 47 57 55
164 158 165 157 159 157 154 143 140 136 130 118 106 100 98 106 105 100 94 92 90 36 58 49 82 81 45 38 47 54 128 122 119 32 9 16 22 5 45 51 52 53 53
168 162 157 165 162 164 158 153 149 144 138 132 115 113 102 92 95 98 95 88 84 111 31 50 59 38 36 46 43 48 25 46 78 54 43 2 1 349 45 47 52 66 62
169 170 163 170 163 165 162 162 155 147 145 143 131 115 119 121 108 92 91 84 66 63 63 55 33 24 31 32 33 25 15 25 37 50 61 45 22 354 69 62 61 61 64
174 173 173 171 170 165 169 162 162 161 160 154 138 122 109 106 106 115 114 98 44 59 54 54 46 31 3 29 29 24 18 18 19 50 61 62 60 44 71 57 61 63 55
181 179 178 176 173 169 170 167 171 161 169 162 143 124 129 72 110 88 96 93 85 36 36 34 28 34 26 357 4 9 15 15 14 14 21 60 80 72 70 44 20 43 38
191 187 185 184 175 175 173 171 177 173 175 173 170 165 141 119 129 60 98 53 40 30 30 16 9 4 4 353 357 7 1 2 5 6 1 11 14 129 72 70 360 357 353
191 194 191 189 188 184 182 186 183 188 201 202 197 173 154 140 118 152 318 338 1 344 2 11 5 0 359 352 340 337 349 348 343 344 353 353 345 24 16 329 186 329 21
192 197 199 197 189 197 196 190 200 208 213 213 215 214 218 209 208 197 277 307 308 311 320 334 343 347 343 344 344 329 321 330 338 321 309 305 318 339 335 300 327 322 304
200 203 205 204 202 194 197 204 209 214 214 225 218 228 221 224 259 230 245 259 265 282 298 306 313 322 326 331 340 331 322 316 314 319 304 284 267 265 299 286 292 314 322
207 208 209 209 208 208 208 214 217 220 222 232 229 234 236 239 225 226 229 253 259 280 294 306 301 306 314 312 320 322 320 322 310 301 301 293 279 262 261 273 285 297 303
208 209 213 216 216 219 220 221 226 229 232 237 242 243 249 245 236 247 255 257 262 278 283 305 278 299 289 304 306 310 309 315 312 301 292 292 290 288 264 256 261 276 287
202 198 202 205 212 218 223 226 225 226 234 242 247 250 250 249 247 251 258 262 262 266 274 300 285 285 291 294 304 301 294 299 298 302 305 298 296 294 283 268 255 258 270
199 202 203 209 214 220 224 231 234 235 238 244 246 247 252 258 236 246 256 261 261 263 268 270 279 284 284 293 296 295 287 283 283 285 288 296 301 302 298 285 264 261 262
202 206 211 217 222 224 230 235 237 240 241 236 246 248 252 248 243 247 254 257 259 261 267 276 273 263 271 292 295 295 283 282 274 271 280 287 290 295 301 298 279 267 267
217 221 224 226 228 232 237 238 237 238 239 235 235 249 250 248 244 247 254 258 259 265 270 272 271 268 280 292 296 276 286 283 280 275 274 280 284 284 287 293 286 279 275
221 226 230 232 234 232 232 233 235 233 236 237 242 242 249 247 247 247 249 258 264 266 265 267 270 275 274 278 297 292 285 286 286 284 282 280 280 277 276 278 282 279 278
222 225 228 225 226 226 227 228 240 239 238 240 242 242 240 241 243 249 254 257 264 263 260 263 270 276 276 286 287 294 292 293 294 293 287 287 281 276 271 269 271 273 278
219 222 225 226 228 226 226 228 229 241 241 241 246 247 245 243 244 247 253 260 259 253 256 262 270 275 277 280 281 284 284 288 291 291 295 293 291 279 271 267 267 268 272
217 221 224 228 231 234 229 229 225 240 240 242 244 246 249 247 245 243 246 256 261 259 254 261 268 271 272 275 282 282 284 285 289 293 298 300 296 289 273 268 269 264 262
213 222 227 226 223 219 222 225 230 235 240 242 242 240 246 250 246 247 247 248 258 266 262 264 265 267 270 272 278 280 285 286 285 292 287 287 289 288 284 270 268 260 256
209 216 225 231 237 238 238 237 235 236 240 242 244 244 243 246 247 247 249 248 250 258 270 265 261 261 269 274 277 281 285 278 282 288 286 284 286 291 288 277 274 260 254
218 222 225 230 237 238 241 242 243 240 242 243 243 242 246 246 247 249 245 251 259 261 260 265 265 265 265 266 270 276 276 277 280 283 290 279 279 285 288 285 270 259 260
227 226 229 232 232 242 244 242 242 239 242 244 245 244 244 242 244 241 249 257 258 260 268 272 270 271 271 271 268 269 272 272 274 277 282 278 279 283 284 283 269 262 261